[[{"header":{"parameterUnit":"m.s-1","parameterCategory":1,"la1":30.2991,"la2":30.254,"lo1":-89.0895,"lo2":-89.0444,"dy":0.0017,"dx":0.0017,"nx":28,"ny":28,"refTime":"2025-06-18T09:00:00:Z","depth":0,"parameterNumber":2,"parameterNumberName":"U-component_of_WINDS"},"data":[0,0,0,0,0,0,0,0,0,0,0,0,0,0,0,0,0,0,0,0,0,0,0,0,0,0,0,0,0,0,0,0,0,0,0,0,0,0,0,0,0,0,0,0,0,0,0,0,0,0,0,0,0,0,0,0,0,0,0.0601,0.06,0,0.0551,0.055,0.0549,0.0514,0.0513,0.0513,0.0513,0.046,0.0459,0.0457,0,0,0,0,0,0,0,0,0,0,0,0,0,0.0663,0.0662,0.0601,0.06,0.06,0.0551,0.055,0.0549,0.0514,0.0513,0.0513,0.0513,0.046,0.0459,0.0457,0,0,0,0,0,0,0,0,0,0,0,0,0,0.0627,0.0662,0.0601,0.0576,0.0573,0.0551,0.055,0.0549,0.0514,0.0513,0.0513,0.0512,0.046,0.0459,0.0457,0.0455,0,0,0.0452,0.0451,0,0,0,0,0,0,0,0,0.0629,0.0625,0.058,0.0578,0.0574,0.0538,0.0552,0.0517,0.0514,0.0536,0.0513,0.0512,0.0486,0.0482,0.0474,0.0452,0.045,0.0452,0.0451,0.045,0.0449,0,0,0,0,0,0,0,0.0632,0.0627,0.0581,0.058,0.0576,0.0566,0.0561,0.0546,0.0514,0.0534,0.0532,0.0526,0.0484,0.0475,0.0472,0.0449,0.0452,0.045,0.0449,0.0448,0.0422,0.0423,0,0,0,0,0,0,0.0638,0.0629,0.0582,0.0579,0.0601,0.0566,0.0559,0.055,0.0514,0.0508,0.0527,0.0525,0.0478,0.0474,0.047,0.0464,0.045,0.0448,0.0447,0.0422,0.0422,0.0423,0,0,0,0,0,0,0.064,0.0635,0.0584,0.0603,0.0596,0.0565,0.0555,0.0549,0.054,0.0508,0.0502,0.0523,0.0478,0.0472,0.0459,0.0462,0.0447,0.0446,0.0422,0.0422,0.0423,0.0452,0,0,0,0,0,0,0.0642,0.0635,0.0635,0.0604,0.0595,0.0575,0.0555,0.0549,0.0538,0.0535,0.0504,0.0498,0.0477,0.0461,0.0457,0.0459,0.0445,0.0421,0.0422,0.0422,0.0451,0.0454,0.0456,0,0,0,0,0,0.0644,0.0645,0.0635,0.063,0.0594,0.0575,0.057,0.0547,0.0538,0.0537,0.0516,0.0499,0.0462,0.046,0.0455,0.0456,0.0421,0.0422,0.0422,0.045,0.0453,0.0456,0,0,0,0,0,0,0.0677,0.0641,0.0629,0.062,0.0601,0.0569,0.0567,0.0551,0.0534,0.0532,0.0502,0.0496,0.0485,0.0469,0.0468,0.0452,0.0439,0.0439,0.0462,0.0465,0.0468,0.0471,0.0443,0,0,0,0,0,0.0683,0.0672,0.064,0.0635,0.0626,0.0598,0.0589,0.0572,0.0551,0.0543,0.0521,0.0501,0.0484,0.0474,0.0457,0.0449,0.0441,0.0447,0.045,0.0452,0.0452,0.0445,0.0447,0.0425,0.0425,0.0425,0,0,0.0696,0.0675,0.0669,0.0641,0.0624,0.0612,0.0592,0.058,0.0569,0.0541,0.0526,0.051,0.0485,0.0473,0.0467,0.046,0.0456,0.0453,0.0455,0.0454,0.0446,0.0448,0.045,0.0426,0.0426,0.0426,0,0,0.0712,0.0696,0.0689,0.0673,0.0648,0.0629,0.0628,0.0598,0.0586,0.0571,0.0549,0.0536,0.0509,0.0491,0.0479,0.0488,0.0472,0.0484,0.0497,0.0491,0.0492,0.0494,0.0496,0.0497,0.0484,0.0484,0.0484,0,0.0731,0.0712,0.0688,0.0676,0.0664,0.0638,0.0631,0.0616,0.0586,0.0578,0.0571,0.0535,0.0517,0.05,0.0503,0.0494,0.049,0.0487,0.0494,0.0495,0.0496,0.0498,0.0499,0.0485,0.0485,0.0485,0.0485,0,0.0735,0.0722,0.072,0.0692,0.068,0.0671,0.0644,0.0635,0.0619,0.0601,0.0585,0.0562,0.054,0.0535,0.0519,0.0516,0.0512,0.05,0.0487,0.05,0.0501,0.0502,0.0488,0.0487,0.0487,0.0486,0,0,0.077,0.073,0.0729,0.0716,0.0686,0.0675,0.0664,0.0643,0.0634,0.0615,0.0604,0.0581,0.057,0.0556,0.0538,0.0533,0.054,0.0521,0.052,0.0524,0.0532,0.0541,0.0542,0.0529,0.0529,0.0529,0.0534,0,0.0781,0.0761,0.0738,0.0725,0.0712,0.0687,0.0677,0.0658,0.064,0.0626,0.0606,0.059,0.0577,0.0568,0.0562,0.054,0.0541,0.054,0.0517,0.0517,0.0523,0.0543,0.0552,0.0558,0.0534,0.0535,0.0535,0,0.0791,0.0773,0.0759,0.0729,0.0723,0.0715,0.0693,0.068,0.0656,0.0644,0.0628,0.061,0.0596,0.0585,0.0564,0.0564,0.0554,0.0542,0.0541,0.0537,0.0526,0.0538,0.0559,0.056,0.0535,0.0535,0.0535,0,0.0816,0.0788,0.0776,0.0766,0.0732,0.0726,0.0712,0.0688,0.0676,0.0657,0.0648,0.0627,0.0616,0.0599,0.0575,0.057,0.0557,0.0544,0.0545,0.0545,0.0542,0.0543,0.0561,0.0538,0.0538,0.0538,0.0538,0,0.083,0.0822,0.0787,0.0779,0.0769,0.0743,0.0734,0.0717,0.0696,0.0683,0.0661,0.0649,0.0618,0.0603,0.0584,0.0569,0.0564,0.0553,0.0548,0.0554,0.0556,0.0546,0.0545,0.0538,0.0538,0.0538,0.0538,0,0.0856,0.0832,0.0817,0.0786,0.0778,0.0772,0.0745,0.0736,0.0717,0.0702,0.0697,0.0667,0.0648,0.0622,0.0595,0.0582,0.0569,0.0562,0.0577,0.0574,0.0576,0.0576,0.0588,0.0587,0.0566,0.0566,0.0566,0,0.0865,0.0859,0.0827,0.0818,0.0804,0.0789,0.0777,0.0751,0.0739,0.0711,0.0705,0.0684,0.0666,0.0637,0.0612,0.0591,0.0582,0.0588,0.0578,0.0585,0.058,0.0581,0.0579,0.059,0.059,0.059,0.0591,0,0.0885,0.0873,0.0857,0.0837,0.0823,0.0805,0.0787,0.078,0.075,0.0737,0.0718,0.0704,0.0676,0.0655,0.063,0.0614,0.0597,0.0594,0.0592,0.0599,0.0607,0.0601,0.0582,0.0593,0.0593,0.0593,0.0593,0.0593,0.0902,0.0894,0.0871,0.0853,0.0836,0.0819,0.0809,0.0789,0.0773,0.0748,0.0734,0.0715,0.069,0.0656,0.064,0.0624,0.0617,0.0616,0.0615,0.0615,0.0617,0.0611,0.0619,0.0619,0.0619,0.0619,0.0619,0,0.0918,0.0902,0.0886,0.0861,0.0847,0.0833,0.0811,0.08,0.0784,0.0763,0.0746,0.0722,0.0702,0.0676,0.0653,0.0645,0.0637,0.064,0.064,0.0636,0.0624,0.0627,0.0647,0.0647,0.0647,0.0647,0.0647,0.0647,0.0925,0.0912,0.0897,0.0875,0.0858,0.084,0.0828,0.0812,0.0795,0.0771,0.0754,0.0737,0.0714,0.0689,0.0669,0.0662,0.0654,0.066,0.065,0.064,0.0637,0.0635,0.0637,0.0659,0.0659,0.0663,0.0663,0.0663]},{"header":{"parameterUnit":"m.s-1","parameterCategory":1,"la1":30.2991,"la2":30.254,"lo1":-89.0895,"lo2":-89.0444,"dy":0.0017,"dx":0.0017,"nx":28,"ny":28,"refTime":"2025-06-18T09:00:00:Z","depth":0,"parameterNumber":3,"parameterNumberName":"V-component_of_WINDS"},"data":[0,0,0,0,0,0,0,0,0,0,0,0,0,0,0,0,0,0,0,0,0,0,0,0,0,0,0,0,0,0,0,0,0,0,0,0,0,0,0,0,0,0,0,0,0,0,0,0,0,0,0,0,0,0,0,0,0,0,3.7799,3.78,0,3.7906,3.7908,3.7909,3.7877,3.7875,3.7873,3.7871,3.7979,3.7983,3.7988,0,0,0,0,0,0,0,0,0,0,0,0,0,3.7561,3.7566,3.7798,3.78,3.7801,3.7906,3.7908,3.7909,3.7878,3.7875,3.7872,3.787,3.7977,3.7983,3.7989,0,0,0,0,0,0,0,0,0,0,0,0,0,3.7666,3.7568,3.7798,3.7798,3.7799,3.7906,3.7908,3.791,3.7878,3.7875,3.7871,3.7868,3.7975,3.7982,3.799,3.8102,0,0,3.8012,3.8016,0,0,0,0,0,0,0,0,3.766,3.7675,3.7797,3.7798,3.78,3.7875,3.7864,3.7974,3.7879,3.7848,3.7871,3.7867,3.7947,3.7956,3.7984,3.8107,3.8112,3.8013,3.8018,3.8021,3.8023,0,0,0,0,0,0,0,3.7653,3.767,3.7841,3.7799,3.78,3.7791,3.7803,3.7885,3.7915,3.7851,3.7849,3.7862,3.7947,3.7977,3.7986,3.8114,3.8013,3.8019,3.8024,3.8027,3.8332,3.8336,0,0,0,0,0,0,3.7645,3.7664,3.7838,3.7844,3.7721,3.7798,3.7811,3.7854,3.7914,3.792,3.7865,3.786,3.7966,3.7977,3.799,3.8123,3.8021,3.8028,3.8032,3.8329,3.8333,3.8337,0,0,0,0,0,0,3.764,3.7661,3.7833,3.7754,3.7775,3.7806,3.7855,3.7858,3.7888,3.7924,3.7929,3.789,3.7963,3.7979,3.8074,3.8127,3.8031,3.8038,3.8324,3.833,3.8335,3.8393,0,0,0,0,0,0,3.7634,3.766,3.7704,3.7755,3.778,3.7917,3.7858,3.7863,3.7901,3.7896,3.7949,3.7955,3.7962,3.8063,3.8082,3.8135,3.8044,3.832,3.8327,3.8333,3.8387,3.84,3.8411,0,0,0,0,0,3.7625,3.7716,3.7706,3.7727,3.7835,3.792,3.7934,3.7941,3.7906,3.7949,3.7972,3.7953,3.8119,3.8073,3.8094,3.815,3.8316,3.8325,3.8333,3.8381,3.8397,3.8411,0,0,0,0,0,0,3.7669,3.7723,3.7712,3.7822,3.7867,3.7915,3.797,3.7959,3.8014,3.8007,3.8012,3.8025,3.8121,3.8146,3.8094,3.8261,3.8212,3.8225,3.8242,3.8257,3.827,3.8261,3.805,0,0,0,0,0,3.7692,3.7757,3.78,3.7893,3.7916,3.7939,3.7977,3.7978,3.8024,3.8043,3.8073,3.8118,3.8179,3.822,3.8279,3.839,3.84,3.8439,3.8452,3.8462,3.8472,3.853,3.8547,3.8364,3.8364,3.8364,0,0,3.7739,3.7776,3.7817,3.7902,3.7937,3.8003,3.7955,3.8028,3.8076,3.8054,3.8144,3.8168,3.8219,3.8321,3.8368,3.8345,3.8525,3.8472,3.848,3.8485,3.854,3.8558,3.8573,3.837,3.8369,3.8368,0,0,3.7858,3.7894,3.7974,3.8009,3.8063,3.8078,3.8097,3.8146,3.8161,3.8253,3.8236,3.8294,3.8401,3.8437,3.8469,3.86,3.8584,3.8619,3.8683,3.874,3.8754,3.8767,3.8811,3.8827,3.863,3.863,3.863,0,3.7909,3.8009,3.8016,3.809,3.8127,3.811,3.8189,3.8224,3.8293,3.8319,3.8292,3.8424,3.8457,3.8567,3.8599,3.8626,3.8647,3.8612,3.8752,3.8764,3.8776,3.8819,3.8836,3.8634,3.8633,3.8633,3.8633,0,3.8068,3.8138,3.8196,3.8263,3.8307,3.8384,3.8401,3.8444,3.8442,3.8459,3.8551,3.859,3.8656,3.8682,3.8681,3.8792,3.8775,3.875,3.87,3.8798,3.8837,3.8854,3.8639,3.8638,3.8637,3.8636,0,0,3.8217,3.8287,3.8308,3.8338,3.8395,3.8448,3.8523,3.8587,3.8623,3.8672,3.8733,3.8824,3.8801,3.8837,3.884,3.889,3.8988,3.8858,3.8859,3.8879,3.911,3.9127,3.9145,3.8978,3.8982,3.8984,3.9105,0,3.8339,3.8471,3.8479,3.8598,3.8661,3.8645,3.871,3.8752,3.877,3.8825,3.8844,3.8907,3.8873,3.8895,3.8944,3.8966,3.9034,3.8957,3.9034,3.9036,3.9019,3.9167,3.9185,3.9297,3.9121,3.9123,3.9125,0,3.8499,3.8552,3.8678,3.8724,3.8751,3.8809,3.8867,3.8921,3.8967,3.8976,3.9017,3.9012,3.9087,3.9036,3.9138,3.9086,3.9117,3.9133,3.9137,3.9143,3.9085,3.9174,3.9333,3.9349,3.915,3.9148,3.9146,0,3.8592,3.8695,3.8783,3.8809,3.8866,3.8907,3.8932,3.8975,3.9013,3.9064,3.9088,3.9147,3.9179,3.9225,3.9235,3.9198,3.9337,3.9287,3.9345,3.9345,3.9373,3.9371,3.9538,3.9398,3.9397,3.9397,3.9397,0,3.8726,3.8803,3.8825,3.8879,3.8964,3.8972,3.9055,3.9078,3.9116,3.9172,3.9163,3.9216,3.9228,3.9283,3.9292,3.9374,3.9389,3.9397,3.9398,3.9397,3.9396,3.9416,3.9408,3.9402,3.9401,3.94,3.9399,0,3.8843,3.8862,3.8956,3.9002,3.9015,3.9076,3.9114,3.9165,3.9182,3.9254,3.9271,3.9297,3.9361,3.9377,3.9454,3.946,3.9556,3.9551,3.954,3.9539,3.9595,3.9589,3.9779,3.9804,3.965,3.9651,3.9652,0,3.8927,3.8985,3.9037,3.9075,3.9102,3.9163,3.9201,3.9211,3.9251,3.9307,3.935,3.9414,3.9465,3.9568,3.9593,3.9651,3.9646,3.9709,3.9655,3.9651,3.9644,3.964,3.9645,3.9718,3.972,3.9721,3.9722,0,3.9072,3.9078,3.9133,3.9192,3.9238,3.9285,3.9329,3.936,3.9376,3.9421,3.9487,3.9526,3.9604,3.9667,3.9725,3.975,3.9738,3.974,3.9756,3.9754,3.9744,3.9748,3.9566,3.9735,3.9733,3.9733,3.9732,3.9731,3.9173,3.9223,3.9268,3.9329,3.9364,3.9405,3.9455,3.9477,3.9533,3.9597,3.9599,3.967,3.9713,3.979,3.9819,3.9874,3.9854,3.9878,3.9884,3.9889,3.9893,3.9738,3.9885,3.9884,3.9884,3.9884,3.9884,0,3.9315,3.9343,3.94,3.9462,3.951,3.9496,3.9544,3.9585,3.9648,3.9689,3.9739,3.9814,3.9874,3.9904,3.9963,4.0001,3.9997,4.0016,4.0012,4.0018,3.9908,3.9887,4.0018,4.0018,4.0018,4.0018,4.0018,4.0018,3.9395,3.9479,3.949,3.959,3.9616,3.9686,3.9714,3.9752,3.9785,3.9868,3.9918,3.9938,3.9974,4.0035,4.0089,4.0096,4.0118,4.0139,4.0143,4.004,4.0026,4.0013,3.9993,4.0144,4.0144,4.0248,4.0249,4.025]}]]